Regional Weather Roundup
Issued by NWS

Home | Current Version | Previous Version | Graphics & Text | Print | Product List | Glossary Off
Versions: 1 2 3 4 5 6 7 8 9 10 11 12 13 14 15 16 17 18 19 20 21 22 23 24 25 26 27 28 29 30 31 32 33 34 35 36 37 38 39 40 41 42 43 44 45 46 47 48

000
ASUS45 KBOI 052110
RWRID

IDAHO REGIONAL WEATHER ROUNDUP
NATIONAL WEATHER SERVICE BOISE ID
300 PM MDT SUN JUL 05 2015

NOTE: "FAIR" INDICATES FEW OR NO CLOUDS BELOW 12000 FEET
WITH NO SIGNIFICANT WEATHER AND/OR OBSTRUCTIONS TO VISIBILITY

IDZ012-014-052200-
SOUTHWEST IDAHO


CITY           SKY/WX    TMP DP  RH WIND       PRES   REMARKS
BOISE          CLOUDY    82  52  35 N8        29.96R
CALDWELL       CLOUDY    79  54  41 SW3       29.96R
MOUNTAIN HOME  CLOUDY    87  49  26 W9        29.94R
$$

IDZ016-017-052200-
SOUTHCENTRAL IDAHO


CITY           SKY/WX    TMP DP  RH WIND       PRES   REMARKS
BURLEY         PTSUNNY   83  56  39 VRB5      29.99F
JEROME         PTSUNNY   82  52  35 SW13      30.01S
TWIN FALLS     PTSUNNY   86  49  27 W16       29.99S
$$

IDZ019>023-052200-
SOUTHEAST IDAHO


CITY           SKY/WX    TMP DP  RH WIND       PRES   REMARKS
IDAHO FALLS    CLOUDY    81  53  37 S21       30.03F
POCATELLO      MOSUNNY   84  51  31 SW15G21   30.03F
REXBURG        CLOUDY    74  55  51 W6        30.04F
$$

IDZ006-010-011-018-031-032-052200-
CENTRAL IDAHO MOUNTAINS


CITY           SKY/WX    TMP DP  RH WIND       PRES   REMARKS
MCCALL         CLOUDY    81  42  25 W9        30.02R
HAILEY         PTSUNNY   75  55  50 E12       30.06F
STANLEY          N/A     71  39  31 MISG      30.15R
SALMON         CLOUDY    86  48  26 CALM      29.85F
CHALLIS        CLOUDY    83  32  16 SW13G26   29.99R
$$

IDZ002-004-006-007-026-052200-
NORTHERN IDAHO


CITY           SKY/WX    TMP DP  RH WIND       PRES   REMARKS
LEWISTON       SUNNY     97  38  13 N12G17    29.80S HX  92
LOWELL           N/A     96  49  20 VRB6      29.76F HX  93
COEUR D`ALENE  SUNNY     84  48  28 N21       29.91F
MULLAN PASS    SUNNY     69  49  48 CALM      30.11S
$$



USA.gov is the U.S. government's official web portal to all federal, state and local government web resources and services.